TimeAKDT,TemperatureF,Dew PointF,Humidity,Sea Level PressureIn,VisibilityMPH,Wind Direction,Wind SpeedMPH,Gust SpeedMPH,PrecipitationIn,Events,Conditions,WindDirDegrees,DateUTC
12:53 AM,-11.0,-13.0,91,30.64,10.0,WSW,3.5,-,N/A,,Clear,240,2013-04-19 08:53:00
1:53 AM,-16.1,-18.9,87,30.63,10.0,South,5.8,-,N/A,,Clear,190,2013-04-19 09:53:00
2:53 AM,-16.1,-18.9,87,30.61,10.0,South,8.1,-,N/A,,Clear,190,2013-04-19 10:53:00
3:53 AM,-15.0,-18.0,86,30.61,10.0,SSW,8.1,-,N/A,,Clear,210,2013-04-19 11:53:00
4:53 AM,-17.0,-20.9,82,30.60,10.0,South,8.1,-,N/A,,Clear,190,2013-04-19 12:53:00
5:53 AM,-17.0,-20.9,82,30.60,10.0,South,8.1,-,N/A,,Clear,190,2013-04-19 13:53:00
6:53 AM,-17.0,-20.9,82,30.58,10.0,South,9.2,-,N/A,,Clear,190,2013-04-19 14:53:00
7:53 AM,-17.0,-20.0,86,30.57,10.0,South,9.2,-,N/A,,Clear,190,2013-04-19 15:53:00
8:53 AM,-14.1,-18.0,82,30.57,10.0,South,6.9,-,N/A,,Clear,190,2013-04-19 16:53:00
9:53 AM,-11.0,-16.1,78,30.56,10.0,SSW,6.9,-,N/A,,Clear,200,2013-04-19 17:53:00
10:53 AM,-9.0,-14.1,79,30.55,10.0,South,9.2,-,N/A,,Clear,190,2013-04-19 18:53:00
11:53 AM,-6.0,-9.9,83,30.54,3.0,SSW,8.1,-,N/A,,Clear,200,2013-04-19 19:53:00
12:53 PM,-2.0,-7.1,79,30.53,10.0,SSW,8.1,-,N/A,,Clear,200,2013-04-19 20:53:00
1:53 PM,1.0,-2.9,83,30.52,10.0,SSW,8.1,-,N/A,,Clear,200,2013-04-19 21:53:00
2:53 PM,3.9,-0.9,80,30.51,10.0,South,8.1,-,N/A,,Clear,190,2013-04-19 22:53:00
3:53 PM,6.1,1.9,83,30.49,10.0,SSW,8.1,-,N/A,,Clear,200,2013-04-19 23:53:00
4:53 PM,8.1,3.0,80,30.48,10.0,SSW,9.2,-,N/A,,Clear,210,2013-04-20 00:53:00
5:53 PM,8.1,3.9,83,30.46,10.0,SSW,9.2,-,N/A,,Clear,200,2013-04-20 01:53:00
5:56 PM,8.6,3.2,79,30.46,1.5,SSW,9.2,-,N/A,,Clear,200,2013-04-20 01:56:00
6:53 PM,7.0,3.9,87,30.45,10.0,SSW,9.2,-,N/A,,Clear,200,2013-04-20 02:53:00
7:53 PM,6.1,1.9,83,30.43,10.0,South,6.9,-,N/A,,Clear,190,2013-04-20 03:53:00
8:53 PM,3.9,-0.0,84,30.43,10.0,SW,8.1,-,N/A,,Clear,230,2013-04-20 04:53:00
9:53 PM,1.0,-2.0,87,30.42,10.0,SW,6.9,-,N/A,,Clear,220,2013-04-20 05:53:00
10:53 PM,1.9,-2.0,83,30.41,10.0,SW,15.0,-,N/A,,Clear,220,2013-04-20 06:53:00
11:53 PM,-0.9,-4.0,87,30.41,10.0,SW,9.2,-,N/A,,Clear,230,2013-04-20 07:53:00